Terminal Aerodrome Forecast
Issued by NWS Quad Cities IA IL

Home | Current Version | Previous Version | Text Only | Print | Product List | Glossary On
Versions: 1 2 3 4 5 6 7 8 9 10 11 12 13 14 15 16 17 18 19 20 21 22 23 24 25 26 27 28 29
000
FTUS43 KDVN 261100
TAFMLI
TAF
KMLI 261121Z 2612/2712 11003KT P6SM BKN029
     FM261800 VRB04KT P6SM SCT040 BKN100 PROB30 2621/2702 4SM TSRA
      BKN030CB OVC050
     FM270800 29005KT P6SM SKC=

USA.gov is the U.S. government's official web portal to all federal, state and local government web resources and services.